Weather observations for the past three days for
Palau International Airport
| Date | Time (+09) | Wind (mph) | Vis. (mi.) | Weather | Sky Cond. | Temperature (ºF) | Relative Humidity | Wind Chill (°F) | Heat Index (°F) | Pressure | Precipitation (in) | ||||||
|---|---|---|---|---|---|---|---|---|---|---|---|---|---|---|---|---|---|
| Air | Dwpt | 6 hour | altimeter (in) | sea level (mb) | 1 hr | 3 hr | 6 hr | ||||||||||
| Max. | Min. | ||||||||||||||||
| 04 | 11:50 | SW 13 G 22 | 10.00 | Mostly Cloudy | SCT017 BKN130 BKN320 | 87.8 | 77 | 70% | 100 | 29.89 | 0.0 | ||||||
| 04 | 10:50 | SW 14 G 20 | 10.00 | Mostly Cloudy | SCT017 BKN130 BKN320 | 86 | 77 | 75% | 97 | 29.91 | 0.0 | ||||||
| 04 | 09:50 | SW 8 | 10.00 | Mostly Cloudy | BKN016 BKN130 BKN310 | 86 | 77 | 75% | 97 | 29.92 | 0.0 | ||||||
| 04 | 08:50 | SW 12 | 10.00 | Mostly Cloudy | SCT016 BKN120 BKN300 | 84.2 | 77 | 79% | 94 | 29.93 | 0.0 | ||||||
| 04 | 07:50 | SW 8 | 10.00 | Mostly Cloudy | SCT016 BKN120 BKN300 | 84.2 | 77 | 79% | 94 | 29.93 | 0.0 | ||||||
| 04 | 06:50 | SW 6 | 10.00 | Mostly Cloudy | SCT016 BKN120 BKN300 | 82.4 | 75.2 | 79% | 89 | 29.9 | 0.0 | ||||||
| 04 | 05:50 | SW 6 | 10.00 | Mostly Cloudy | SCT015 BKN110 BKN290 | 80.6 | 75.2 | 84% | 86 | 29.88 | 0.0 | ||||||
| 04 | 04:50 | SW 9 | 12.00 | Mostly Cloudy | SCT015 BKN110 BKN290 | 80.6 | 75.2 | 84% | 86 | 29.86 | 0.0 | ||||||
| 04 | 03:50 | SW 7 | 12.00 | Mostly Cloudy | SCT015 BKN110 BKN290 | 80.6 | 75.2 | 84% | 86 | 29.87 | 0.0 | ||||||
| 04 | 02:50 | SW 8 | 12.00 | Mostly Cloudy | SCT015 BKN110 BKN290 | 80.6 | 75.2 | 84% | 86 | 29.88 | 0.0 | ||||||
| 04 | 01:50 | SW 8 | 12.00 | Mostly Cloudy | SCT015 BKN110 BKN290 | 82.4 | 75.2 | 79% | 89 | 29.88 | 0.0 | ||||||
| 04 | 00:50 | SW 8 | 12.00 | Mostly Cloudy | SCT015 BKN110 BKN290 | 82.4 | 75.2 | 79% | 89 | 29.89 | 0.0 | ||||||
| 03 | 23:50 | SW 8 G 15 | 12.00 | Mostly Cloudy | SCT015 BKN110 BKN290 | 82.4 | 75.2 | 79% | 89 | 29.9 | 0.0 | ||||||
| 03 | 22:50 | S 6 | 12.00 | Mostly Cloudy | SCT015 SCT110 BKN290 | 82.4 | 75.2 | 79% | 89 | 29.91 | 0.0 | ||||||
| 03 | 21:50 | SW 10 | 12.00 | Mostly Cloudy | FEW015 SCT110 BKN290 | 82.4 | 75.2 | 79% | 89 | 29.9 | 0.0 | ||||||
| 03 | 20:50 | SW 9 | 12.00 | Mostly Cloudy | FEW015 SCT110 BKN290 | 82.4 | 75.2 | 79% | 89 | 29.89 | 0.0 | ||||||
| 03 | 19:50 | SW 8 G 14 | 12.00 | Mostly Cloudy | FEW015 SCT110 BKN290 | 82.4 | 75.2 | 79% | 89 | 29.88 | 0.0 | ||||||
| 03 | 18:50 | SW 9 | 12.00 | Mostly Cloudy | FEW015 SCT110 BKN290 | 82.4 | 75.2 | 79% | 89 | 29.86 | 0.0 | ||||||
| 03 | 17:50 | SW 10 G 18 | 12.00 | Mostly Cloudy | SCT016 BKN120 BKN300 | 84.2 | 77 | 79% | 94 | 29.85 | 0.0 | ||||||
| 03 | 16:50 | SW 10 G 16 | 12.00 | Mostly Cloudy | SCT016 BKN120 BKN300 | 86 | 75.2 | 70% | 95 | 29.84 | 0.0 | ||||||
| 03 | 15:50 | SW 14 G 20 | 12.00 | Mostly Cloudy | SCT017 BKN120 BKN310 | 86 | 77 | 75% | 97 | 29.84 | 0.0 | ||||||
| 03 | 14:50 | SW 13 G 21 | 11.00 | Mostly Cloudy | SCT017 BKN120 BKN310 | 87.8 | 77 | 70% | 100 | 29.83 | 0.0 | ||||||
| 03 | 13:50 | S 8 G 20 | 11.00 | Mostly Cloudy | SCT017 BKN130 BKN320 | 87.8 | 77 | 70% | 100 | 29.84 | 0.0 | ||||||
| 03 | 12:50 | S 8 G 21 | 10.00 | Mostly Cloudy | SCT017 BKN130 BKN320 | 87.8 | 77 | 70% | 100 | 29.87 | 0.0 | ||||||
| 03 | 11:50 | SW 13 G 22 | 10.00 | Mostly Cloudy | SCT017 BKN130 BKN320 | 87.8 | 77 | 70% | 100 | 29.89 | 0.0 | ||||||
| 03 | 10:50 | SW 13 G 21 | 10.00 | Mostly Cloudy | SCT017 BKN130 BKN320 | 86 | 77 | 75% | 97 | 29.9 | 0.0 | ||||||
| 03 | 09:50 | S 10 G 21 | 10.00 | Mostly Cloudy | SCT016 BKN130 BKN310 | 86 | 77 | 75% | 97 | 29.91 | 0.0 | ||||||
| 03 | 08:50 | SW 12 G 17 | 10.00 | Mostly Cloudy | SCT017 BKN120 BKN300 | 86 | 77 | 75% | 97 | 29.9 | 0.0 | ||||||
| 03 | 07:50 | SW 10 G 17 | 10.00 | Mostly Cloudy | SCT016 BKN120 BKN300 | 84.2 | 77 | 79% | 94 | 29.9 | 0.0 | ||||||
| 03 | 06:50 | SW 9 G 17 | 10.00 | Mostly Cloudy | SCT016 BKN120 BKN300 | 82.4 | 75.2 | 79% | 89 | 29.87 | 0.0 | ||||||
| 03 | 05:50 | SW 8 | 10.00 | Mostly Cloudy | SCT015 BKN110 BKN290 | 80.6 | 75.2 | 84% | 86 | 29.86 | 0.0 | ||||||
| 03 | 04:50 | SW 8 | 12.00 | Mostly Cloudy | SCT015 BKN110 BKN290 | 80.6 | 75.2 | 84% | 86 | 29.85 | 0.0 | ||||||
| 03 | 03:50 | SW 10 | 12.00 | Mostly Cloudy | SCT015 BKN110 BKN290 | 82.4 | 75.2 | 79% | 89 | 29.84 | 0.0 | ||||||
| 03 | 02:50 | SW 6 | 12.00 | Mostly Cloudy | SCT015 BKN110 BKN290 | 82.4 | 75.2 | 79% | 89 | 29.85 | 0.0 | ||||||
| 03 | 01:50 | SW 9 | 12.00 | Mostly Cloudy | SCT015 BKN110 BKN290 | 82.4 | 75.2 | 79% | 89 | 29.85 | 0.0 | ||||||
| 03 | 00:50 | SW 9 | 12.00 | Mostly Cloudy | SCT015 BKN110 BKN290 | 82.4 | 75.2 | 79% | 89 | 29.87 | 0.0 | ||||||
| 02 | 23:50 | SW 8 | 10.00 | Mostly Cloudy | SCT015 BKN110 BKN290 | 82.4 | 75.2 | 79% | 89 | 29.88 | 0.0 | ||||||
| 02 | 22:50 | SW 8 | 10.00 | Mostly Cloudy | SCT015 BKN110 BKN290 | 82.4 | 75.2 | 79% | 89 | 29.89 | 0.0 | ||||||
| 02 | 21:50 | SW 8 | 10.00 | Mostly Cloudy | SCT015 BKN110 BKN290 | 82.4 | 75.2 | 79% | 89 | 29.9 | 0.0 | ||||||
| 02 | 20:50 | SW 6 | 10.00 | Mostly Cloudy | SCT015 BKN110 BKN290 | 82.4 | 75.2 | 79% | 89 | 29.89 | 0.0 | ||||||
| 02 | 19:50 | SW 8 | 10.00 | Mostly Cloudy | SCT015 BKN110 BKN290 | 82.4 | 75.2 | 79% | 89 | 29.88 | 0.0 | ||||||
| 02 | 18:50 | SW 7 | 10.00 | Overcast | SCT015 BKN110 OVC290 | 82.4 | 75.2 | 79% | 89 | 29.87 | 0.0 | ||||||
| 02 | 17:50 | SW 8 | 10.00 | Overcast | SCT016 BKN120 OVC300 | 84.2 | 75.2 | 74% | 92 | 29.86 | 0.0 | ||||||
| 02 | 16:50 | SW 9 | 10.00 | Overcast | SCT016 BKN120 OVC300 | 84.2 | 75.2 | 74% | 92 | 29.84 | 0.0 | ||||||
| 02 | 15:50 | SW 13 G 17 | 10.00 | Overcast | BKN016 BKN120 OVC300 | 86 | 75.2 | 70% | 95 | 29.83 | 0.0 | ||||||
| 02 | 14:50 | S 7 | 10.00 | Overcast | BKN016 BKN120 OVC300 | 86 | 77 | 75% | 97 | 29.83 | 0.0 | ||||||
| 02 | 13:50 | SW 12 G 18 | 10.00 | Overcast | BKN016 BKN120 OVC310 | 86 | 75.2 | 70% | 95 | 29.84 | 0.0 | ||||||
| 02 | 12:50 | SW 13 G 17 | 10.00 | Overcast | BKN016 BKN130 OVC320 | 87.8 | 75.2 | 66% | 98 | 29.85 | 0.0 | ||||||
| 02 | 11:50 | SW 9 G 20 | 10.00 | Overcast | BKN016 BKN130 OVC320 | 87.8 | 77 | 70% | 100 | 29.88 | 0.0 | ||||||
| 02 | 10:50 | SW 12 G 21 | 10.00 | Mostly Cloudy | SCT017 BKN130 BKN310 | 87.8 | 77 | 70% | 100 | 29.88 | 0.0 | ||||||
| 02 | 09:50 | SW 10 G 18 | 10.00 | Mostly Cloudy | BKN016 BKN130 BKN310 | 86 | 77 | 75% | 97 | 29.9 | 0.0 | ||||||
| 02 | 08:50 | SW 9 | 10.00 | Mostly Cloudy | SCT016 BKN120 BKN300 | 86 | 77 | 75% | 97 | 29.92 | 0.0 | ||||||
| 02 | 07:50 | SW 9 | 10.00 | Mostly Cloudy | SCT016 BKN120 BKN300 | 84.2 | 77 | 79% | 94 | 29.91 | 0.0 | ||||||
| 02 | 06:50 | SW 8 | 10.00 | Mostly Cloudy | SCT016 BKN120 BKN300 | 82.4 | 77 | 84% | 91 | 29.9 | 0.0 | ||||||
| 02 | 05:50 | SW 7 | 10.00 | Mostly Cloudy | SCT016 BKN120 BKN300 | 82.4 | 75.2 | 79% | 89 | 29.9 | 0.0 | ||||||
| 02 | 04:50 | SW 8 | 12.00 | Mostly Cloudy | SCT015 BKN110 BKN290 | 82.4 | 75.2 | 79% | 89 | 29.88 | 0.0 | ||||||
| 02 | 03:50 | SW 7 | 12.00 | Overcast | SCT015 BKN110 OVC290 | 82.4 | 75.2 | 79% | 89 | 29.86 | 0.0 | ||||||
| 02 | 02:50 | SW 7 | 12.00 | Overcast | SCT015 BKN110 OVC290 | 82.4 | 75.2 | 79% | 89 | 29.87 | 0.0 | ||||||
| 02 | 01:50 | SW 8 | 12.00 | Overcast | SCT015 BKN110 OVC290 | 82.4 | 75.2 | 79% | 89 | 29.87 | 0.0 | ||||||
| 02 | 00:50 | SW 8 | 12.00 | Overcast | SCT015 BKN110 OVC290 | 82.4 | 75.2 | 79% | 89 | 29.88 | 0.0 | ||||||
| 01 | 23:50 | W 10 | 10.00 | Mostly Cloudy | SCT015 BKN110 BKN290 | 82.4 | 75.2 | 79% | 89 | 29.9 | 0.0 | ||||||
| 01 | 22:50 | W 7 | 10.00 | Mostly Cloudy | SCT015 BKN110 BKN290 | 82.4 | 75.2 | 79% | 89 | 29.91 | 0.0 | ||||||
| 01 | 21:50 | SW 7 | 10.00 | Mostly Cloudy | SCT015 BKN110 BKN290 | 82.4 | 75.2 | 79% | 89 | 29.92 | 0.0 | ||||||
| 01 | 20:50 | SW 8 | 10.00 | Mostly Cloudy | SCT015 BKN110 BKN290 | 82.4 | 75.2 | 79% | 89 | 29.91 | 0.0 | ||||||
| 01 | 19:50 | SW 10 | 10.00 | Mostly Cloudy | SCT015 BKN110 BKN290 | 82.4 | 75.2 | 79% | 89 | 29.9 | 0.0 | ||||||
| 01 | 18:50 | SW 7 | 10.00 | Mostly Cloudy | SCT015 BKN110 BKN290 | 84.2 | 75.2 | 74% | 92 | 29.89 | 0.0 | ||||||
| 01 | 17:50 | W 10 | 10.00 | Mostly Cloudy | SCT016 BKN120 BKN300 | 84.2 | 75.2 | 74% | 92 | 29.88 | 0.0 | ||||||
| 01 | 16:50 | SW 14 G 20 | 10.00 | Mostly Cloudy | SCT017 BKN120 BKN300 | 84.2 | 75.2 | 74% | 92 | 29.85 | 0.0 | ||||||
| 01 | 15:50 | W 15 G 18 | 10.00 | Mostly Cloudy | SCT017 BKN120 BKN300 | 87.8 | 75.2 | 66% | 98 | 29.84 | 0.0 | ||||||
| 01 | 14:50 | SW 12 G 18 | 10.00 | Mostly Cloudy | SCT016 BKN130 BKN310 | 87.8 | 77 | 70% | 100 | 29.84 | 0.0 | ||||||
| 01 | 13:50 | SW 13 G 20 | 10.00 | Overcast | BKN016 BKN130 OVC320 | 87.8 | 77 | 70% | 100 | 29.85 | 0.0 | ||||||
| 01 | 12:50 | W 16 | 10.00 | Mostly Cloudy | SCT016 BKN130 BKN320 | 87.8 | 77 | 70% | 100 | 29.87 | 0.0 | ||||||
| Date | Time (+09) | Wind (mph) | Vis. (mi.) | Weather | Sky Cond. | Air | Dwpt | Max. | Min. | Relative Humidity | Wind Chill (°F) | Heat Index (°F) | altimeter (in) | sea level (mb) | 1 hr | 3 hr | 6 hr |
| 6 hour | |||||||||||||||||
| Temperature (ºF) | Pressure | Precipitation (in) | |||||||||||||||